Location: Unspecified
(0.0000°N, 0.0000°E)
Time: 00:11:30
(UTC+00:00)

Explorer 7 - Pass Details

Date: 20 July 2019
Orbit: 485 x 680 km, 50.3° (Epoch: 16 August)

Event Time Altitude Azimuth Distance (km) Brightness Sun altitude
Rises 19:53:52 0° 247° (WSW) 2,744 11.0 -25.0°
Reaches altitude 10° 19:57:00 10° 271° (W) 1,801 10.3 -25.7°
Maximum altitude 19:59:20 15° 306° (NW) 1,489 9.9 -26.3°
Drops below altitude 10° 20:01:35 10° 341° (NNW) 1,736 9.8 -26.8°
Sets 20:04:32 0° 6° (N) 2,585 10.5 -27.5°
